Theta_e
315 315 315 315 315 314 314 314 313 313 313 312 313 313 314 313 313 313 313 313 313 313 313 314 315 316 316 317 319 320 320 319 319 320 321 321 321 321 320 321 322 325 328 329 327 325 324 324 324 323 321 320 319 318 319 319 317 317 313 305 299 299
313 313 314 314 315 315 315 314 315 314 314 313 313 313 313 313 313 312 312 312 312 312 314 315 316 317 318 318 320 320 320 319 319 320 321 321 321 321 320 321 322 325 328 329 328 327 326 326 325 324 322 321 319 320 320 317 316 315 309 301 298 298
311 311 312 312 313 313 314 314 315 315 314 314 314 313 313 313 313 312 312 312 312 312 313 314 316 317 318 318 319 319 319 318 319 320 321 322 322 321 321 321 321 325 329 330 328 327 327 326 326 325 323 321 319 319 318 316 314 312 304 299 298 298
311 312 312 312 312 312 312 313 313 314 314 314 313 313 312 313 312 312 312 311 311 313 314 315 317 318 318 318 318 318 318 318 319 320 322 323 322 322 321 321 322 325 329 330 328 327 326 326 326 325 323 321 319 317 316 315 312 307 301 298 298 297
311 312 312 312 312 312 312 312 312 313 313 313 313 313 312 312 312 311 311 311 311 312 314 316 318 318 318 318 317 317 317 318 319 321 322 323 322 322 322 322 323 326 329 330 329 327 326 325 326 326 324 322 319 317 317 315 310 303 299 297 297 297
311 311 312 312 312 312 312 312 312 312 312 312 312 312 312 312 312 312 311 311 311 310 311 313 314 314 315 315 315 315 317 319 321 322 322 323 323 323 323 323 325 327 329 330 329 327 325 324 326 325 323 322 320 317 318 317 309 301 298 297 297 297
311 311 311 311 311 311 312 312 312 312 312 312 312 312 312 312 312 312 311 311 310 310 309 309 309 310 311 313 314 314 316 318 319 320 321 321 322 323 323 325 326 328 329 330 329 328 325 324 326 325 322 322 320 318 318 318 310 300 297 297 297 297
311 311 311 311 311 311 312 312 312 312 312 312 312 311 312 312 312 312 312 311 311 311 311 310 310 310 311 312 313 314 315 316 318 319 320 322 323 323 324 325 326 328 329 328 329 328 325 325 326 325 323 322 320 318 317 317 310 300 297 297 296 296
311 311 311 311 311 311 311 311 312 312 312 312 312 312 312 312 312 312 312 312 312 312 312 312 312 312 312 313 313 314 315 317 318 319 321 322 323 323 323 325 326 328 328 328 328 325 324 325 325 324 323 322 320 319 318 315 308 299 296 296 296 296
312 312 312 312 312 311 311 311 311 311 312 312 312 312 312 312 312 312 312 312 312 312 312 312 312 312 312 312 313 313 315 317 318 319 321 322 323 323 324 325 325 327 328 329 327 323 323 325 325 324 323 321 319 318 317 313 306 298 296 296 295 295
313 313 313 313 313 312 312 311 311 311 311 311 311 312 312 312 312 312 311 311 311 311 311 311 311 311 312 311 312 312 312 314 316 318 320 321 323 324 325 325 325 326 328 327 326 323 322 323 324 324 322 320 319 317 314 311 304 298 296 296 295 295
312 313 313 313 313 313 313 312 312 312 311 311 311 311 311 311 311 311 311 311 311 311 312 311 311 311 311 311 311 311 311 312 313 315 317 319 321 323 324 325 325 326 326 326 325 324 322 322 324 323 321 320 319 316 313 308 302 297 296 296 295 296
313 313 313 313 313 313 313 313 313 313 313 312 311 311 311 311 311 311 311 311 312 312 312 312 312 312 311 311 311 310 311 311 311 312 313 315 318 320 322 323 324 325 325 324 325 324 323 322 323 323 321 320 319 315 311 307 301 297 296 296 295 296
314 314 314 314 313 313 314 313 314 314 314 313 312 311 311 311 311 312 312 312 312 312 312 312 312 312 311 311 310 310 310 310 311 311 312 313 314 316 318 321 322 323 323 323 324 324 323 322 322 322 321 320 319 315 310 305 300 297 296 296 295 295
315 314 314 314 313 314 314 314 314 314 314 313 312 311 311 311 311 311 312 312 312 312 312 312 312 312 311 311 310 309 309 309 309 310 310 310 311 312 314 315 317 320 321 322 323 323 323 323 322 321 321 320 319 315 308 302 298 297 296 296 295 295
315 314 313 314 313 313 314 314 313 313 313 313 312 311 311 311 311 311 311 311 312 312 312 312 312 312 312 311 311 310 309 309 310 310 310 311 312 313 314 315 316 319 321 321 321 321 321 321 321 320 320 319 319 314 305 299 297 296 296 296 295 295
314 314 314 314 313 313 313 313 313 313 313 313 312 311 311 311 311 311 311 311 311 312 312 312 312 312 312 311 311 310 309 309 311 312 313 314 316 316 317 318 318 320 321 321 321 320 319 319 319 319 318 317 316 311 302 297 296 296 295 295 295 295
314 314 314 313 313 312 312 313 313 313 312 312 312 312 311 311 311 311 311 311 311 312 312 312 312 312 312 312 310 309 309 310 313 314 315 316 318 319 319 320 320 320 320 320 320 319 318 318 318 318 317 315 312 307 299 296 296 295 295 295 294 294
314 314 314 313 313 312 312 312 313 313 312 311 311 311 311 311 311 311 311 310 311 311 312 312 312 312 312 311 311 309 309 311 313 315 316 317 317 317 318 318 320 320 319 319 319 318 318 317 317 317 316 314 311 305 299 296 295 295 295 294 294 294
314 314 313 313 312 312 312 312 312 312 312 311 311 311 311 311 311 311 311 311 311 311 311 312 312 311 311 311 311 310 309 310 312 314 315 316 315 316 317 317 319 319 319 319 318 317 317 317 316 316 316 315 311 305 299 296 295 295 294 294 293 293
313 313 313 312 312 312 312 311 311 311 311 311 311 311 311 311 311 311 311 311 311 310 311 311 311 311 311 311 311 310 310 311 312 314 314 314 313 314 315 317 318 319 319 318 317 316 316 316 316 315 315 315 311 304 298 296 295 294 294 294 293 293
312 312 312 312 311 311 311 310 310 311 310 310 310 311 311 311 311 311 311 311 311 310 310 311 311 311 311 311 311 311 310 310 311 313 314 313 312 313 315 316 317 317 317 316 315 315 315 315 315 314 314 314 310 303 297 295 294 294 294 294 293 293
311 311 311 310 310 310 310 310 310 310 309 309 310 310 310 310 311 311 311 311 311 310 310 310 311 311 311 310 310 310 310 310 310 310 311 311 311 313 314 315 315 315 315 315 314 314 314 314 314 313 313 313 310 303 297 295 294 294 294 293 293 293
310 310 310 310 310 310 310 310 310 310 309 309 309 309 310 310 310 310 310 310 310 310 310 310 310 310 310 310 310 310 310 310 310 310 310 310 311 311 312 312 313 313 313 313 314 313 313 313 313 312 313 312 309 303 298 295 294 294 293 293 293 292
310 310 310 310 310 309 309 309 309 309 309 309 309 309 309 309 309 310 310 310 310 310 310 310 310 310 310 310 310 310 310 310 310 310 310 310 311 310 311 311 311 311 312 312 312 312 312 312 312 311 311 310 306 301 297 294 293 293 292 292 292 292
310 310 310 309 309 309 309 308 309 308 309 309 309 309 309 309 309 309 309 309 309 309 310 310 310 310 310 310 310 309 309 309 309 309 309 309 309 309 309 309 310 310 310 310 310 310 310 310 310 310 309 307 303 298 295 293 292 292 292 291 291 291
309 309 309 309 309 309 308 308 308 308 308 308 308 309 309 309 309 309 309 309 309 309 309 309 309 309 309 309 309 309 309 309 308 309 309 308 308 308 308 308 308 308 308 308 308 308 308 309 309 308 307 305 301 297 294 292 292 291 291 291 291 290
309 309 309 309 309 309 309 308 308 308 308 308 308 308 309 309 309 309 309 309 309 309 309 309 309 309 309 309 308 308 308 308 308 308 308 308 308 308 308 307 307 307 307 307 306 306 307 307 307 306 305 303 301 297 294 292 291 291 290 290 290 290
309 309 309 309 309 308 308 308 308 308 308 308 308 308 308 309 309 309 309 309 309 309 309 309 308 308 308 308 308 308 307 307 307 307 307 307 307 307 306 306 306 306 306 306 305 305 305 305 305 305 304 302 301 298 295 293 291 291 290 290 289 289
309 309 308 308 308 308 308 308 308 308 308 308 308 308 308 308 308 308 308 308 308 308 308 308 308 308 308 307 307 307 307 307 307 306 306 306 306 306 306 305 306 305 305 304 304 304 304 304 305 305 304 302 301 299 297 294 292 291 290 290 289 289
309 308 308 308 308 308 308 307 307 308 308 308 308 308 308 308 308 308 308 308 308 308 308 308 307 307 307 307 307 307 307 306 306 306 306 306 305 305 305 305 305 304 303 302 302 302 302 302 303 302 301 300 299 298 297 295 293 291 290 290 289 289
308 308 308 308 308 308 307 307 307 307 307 307 308 308 308 308 308 308 308 308 308 307 307 307 307 307 307 307 307 307 307 306 306 306 305 305 305 304 304 304 304 303 302 302 301 300 300 300 299 299 298 297 297 296 295 294 292 291 290 290 289 288
308 308 308 308 307 307 307 307 307 307 307 307 307 307 307 307 307 307 307 307 307 307 307 307 307 307 307 307 306 306 306 306 306 305 305 305 304 304 304 304 303 303 302 302 301 300 299 299 298 297 297 296 295 294 293 292 291 290 289 289 288 288
308 307 307 307 307 307 307 307 307 307 307 307 307 307 307 307 307 307 307 306 306 306 306 306 306 306 306 306 306 306 306 305 305 305 304 304 304 303 303 303 303 302 302 301 301 300 299 298 297 296 296 295 294 293 292 291 290 289 289 288 288 288
307 307 307 307 307 307 307 307 307 306 306 306 306 306 306 306 306 306 306 306 306 306 306 305 305 305 305 305 305 305 304 304 304 304 304 303 303 303 302 302 301 301 301 300 300 299 299 298 297 296 295 294 293 292 291 291 290 289 288 288 287 287
307 307 306 306 307 306 306 306 306 306 306 306 306 306 306 306 305 305 305 305 305 305 304 304 304 304 304 304 304 304 303 303 303 303 303 303 302 302 302 301 301 300 300 300 299 298 298 297 296 296 295 294 293 292 291 290 289 288 288 287 287 287
306 306 306 306 306 306 306 306 305 305 305 305 305 305 305 305 304 304 304 304 304 303 303 303 303 303 302 302 302 301 301 301 300 300 300 300 300 300 300 300 300 300 299 299 299 298 298 297 296 295 295 294 293 292 290 289 288 288 288 287 287 287
305 305 305 305 305 305 305 305 304 304 304 304 304 303 303 303 303 302 302 302 301 301 300 300 300 299 299 299 298 298 298 297 297 297 297 296 296 296 296 296 296 296 296 297 297 297 297 297 296 295 295 294 294 293 291 290 290 289 288 288 288 288
Wind_Speed
18 19 20 20 20 20 20 20 21 20 20 22 24 27 31 33 36 38 40 42 43 44 44 44 44 43 44 43 43 42 41 41 41 40 40 40 40 39 37 36 36 35 36 36 34 31 29 27 27 26 26 27 28 29 28 28 26 24 27 30 30 29
14 15 17 19 21 22 22 22 22 21 21 21 22 24 27 29 32 34 37 40 41 43 43 43 42 41 41 41 41 41 41 41 40 40 40 40 40 38 36 35 33 33 36 37 35 32 30 29 29 27 26 26 27 30 30 29 26 27 30 32 31 29
12 12 14 15 17 20 22 24 25 25 25 24 24 25 26 28 30 32 34 36 38 40 41 42 42 40 39 39 39 40 40 40 40 40 39 39 39 37 35 34 31 31 34 36 35 33 31 31 30 27 24 24 26 29 28 25 26 30 32 32 31 29
12 13 14 14 15 16 17 20 24 27 28 28 27 28 28 29 30 30 31 33 35 37 38 39 40 39 38 38 39 39 39 39 40 39 38 38 38 36 35 32 30 29 33 36 36 33 31 32 31 28 25 23 25 27 24 23 28 32 33 32 31 29
8 11 13 14 14 14 14 15 18 22 26 28 29 29 28 28 28 28 29 31 33 35 37 38 38 37 37 38 38 38 38 38 38 37 37 37 36 35 33 30 28 28 32 36 35 33 31 31 33 32 26 21 23 24 22 23 29 33 32 32 30 29
1 4 7 9 10 11 12 12 12 15 18 21 23 25 25 26 26 26 27 28 29 31 33 35 35 35 36 37 38 38 37 36 35 35 36 36 35 34 31 29 27 27 31 35 35 33 30 31 36 34 24 20 23 23 23 24 29 33 32 31 30 29
4 3 3 4 5 7 8 8 9 10 12 14 16 18 20 21 22 22 21 21 21 22 25 28 30 33 34 35 35 35 35 34 34 34 34 34 33 32 30 29 27 28 30 32 33 32 29 32 38 34 23 23 25 25 25 26 29 34 32 30 30 29
7 8 7 6 5 5 6 6 6 7 8 9 11 13 14 16 17 17 16 16 16 16 18 19 22 25 27 28 29 29 30 30 31 31 32 32 32 31 30 29 28 28 29 29 30 31 30 35 39 33 25 26 26 24 25 27 31 35 34 31 31 29
9 10 10 10 8 7 6 6 6 6 7 8 9 10 11 12 13 13 14 14 14 15 16 16 18 19 21 23 25 26 26 27 28 29 30 31 32 32 29 27 27 27 28 30 30 29 31 37 38 32 26 26 25 24 26 29 34 37 34 32 32 30
8 9 9 10 10 9 8 7 6 6 6 8 9 9 10 10 11 12 13 15 15 16 16 17 18 19 21 22 24 25 26 25 25 25 26 27 29 29 27 26 26 26 29 32 32 28 28 33 36 32 28 25 24 26 28 31 37 38 36 34 32 31
4 6 8 9 10 11 11 10 9 8 7 7 8 8 9 10 10 12 13 14 15 16 16 16 17 19 20 22 23 25 25 25 24 24 25 26 26 26 26 25 25 27 29 31 32 29 27 30 35 34 29 25 24 25 28 33 38 38 36 35 33 32
6 7 8 9 10 12 13 12 12 12 10 10 9 8 8 9 10 11 12 13 14 15 15 15 16 17 19 20 21 23 23 24 25 25 26 26 26 26 26 26 27 28 28 28 31 31 28 30 35 35 29 25 23 24 28 35 39 38 37 36 34 33
14 13 13 13 12 13 14 15 15 14 14 13 12 10 10 10 10 11 12 13 14 14 15 15 15 16 17 18 19 20 21 22 24 25 26 26 27 27 27 26 27 28 27 28 31 32 29 28 32 33 30 24 22 24 30 36 39 38 37 36 35 33
20 18 16 15 15 15 16 16 16 16 16 15 14 13 12 13 13 13 13 13 13 14 14 14 14 14 15 16 16 17 18 19 20 22 24 25 26 27 27 28 27 27 27 29 31 32 31 29 29 31 30 25 22 26 31 36 39 39 37 36 35 33
20 18 16 14 14 15 16 16 17 17 16 15 15 14 14 15 15 15 15 14 14 14 14 13 13 13 13 14 14 15 15 15 15 16 18 20 21 23 24 26 27 27 28 29 30 33 34 33 32 31 29 26 24 27 33 37 38 38 37 37 36 34
19 17 15 14 14 14 14 15 15 15 14 14 14 14 14 16 17 17 17 17 16 15 14 13 12 11 12 12 13 14 13 13 12 12 12 14 15 16 18 21 23 25 26 27 29 33 36 35 32 29 26 25 26 28 34 37 37 37 37 36 35 34
19 17 16 15 14 13 13 14 14 13 13 13 13 13 14 15 18 19 19 19 17 16 15 13 12 11 12 12 12 13 13 12 12 12 12 13 14 16 17 19 21 23 23 23 25 30 34 32 28 24 23 24 27 31 35 36 36 36 36 35 34 33
20 19 20 20 18 16 16 17 17 14 14 14 13 13 13 15 16 18 18 17 16 15 15 14 13 13 12 12 12 12 13 13 13 13 13 14 15 17 18 20 20 20 20 20 22 27 31 28 23 22 21 22 27 32 36 37 37 37 36 36 34 33
23 25 26 25 23 21 20 21 21 17 16 16 16 14 14 14 15 15 16 15 14 14 14 14 14 13 12 12 12 12 12 13 14 14 15 16 16 17 17 18 18 18 18 18 21 26 28 24 21 21 20 21 26 33 37 38 38 38 38 36 34 33
29 30 29 27 26 25 24 24 22 18 17 19 18 16 15 15 14 13 14 14 14 14 14 15 15 14 13 12 12 12 13 13 14 14 15 16 17 17 17 16 17 18 19 19 20 24 25 22 20 20 21 22 27 34 38 39 39 40 39 37 35 34
29 28 27 27 26 25 24 23 20 18 19 20 20 18 16 15 13 12 12 13 14 15 15 14 14 14 13 12 12 13 13 14 15 15 16 16 16 17 17 18 18 18 20 21 22 23 24 23 22 21 22 25 31 36 40 41 41 40 39 38 37 35
23 23 23 24 23 22 21 19 19 19 20 21 20 18 15 14 13 13 13 14 15 15 15 15 14 14 13 13 12 13 13 14 16 17 18 18 18 17 18 18 18 19 20 22 24 25 26 26 25 24 25 29 34 39 41 41 41 41 40 39 38 37
19 20 21 21 21 19 18 18 19 20 20 20 19 17 15 14 15 15 16 16 16 16 16 15 15 14 14 13 13 13 14 14 15 16 17 18 18 19 19 20 20 21 23 25 27 29 30 31 30 28 29 31 35 39 41 41 40 40 39 38 38 37
19 20 20 20 19 17 16 16 18 19 19 19 18 17 17 17 17 17 16 16 16 16 16 16 15 15 14 14 14 13 13 13 14 15 16 17 18 19 20 22 23 25 28 30 32 34 35 35 34 32 31 32 34 38 40 40 39 38 37 37 37 37
20 20 19 18 16 15 15 16 17 18 18 19 18 19 19 19 18 16 15 15 15 15 15 15 14 14 13 13 13 13 12 12 13 14 15 16 18 20 21 23 25 27 30 31 32 32 32 31 30 29 29 31 33 36 39 39 38 38 37 37 37 35
17 17 16 15 14 13 13 14 15 16 16 17 17 17 17 16 15 14 13 13 12 12 12 12 12 12 12 12 12 12 12 12 13 13 14 15 17 18 20 21 22 23 25 25 26 26 26 26 26 27 28 30 32 35 37 38 38 38 37 37 36 34
11 10 10 9 9 9 9 10 11 11 12 12 13 13 13 12 11 11 10 10 9 9 10 10 10 10 10 11 11 11 12 12 12 13 13 14 15 16 17 17 18 19 20 20 21 21 22 24 25 25 27 29 32 35 37 37 38 37 37 37 36 35
7 6 6 6 6 7 7 7 8 8 9 10 10 10 10 10 10 10 9 9 9 9 9 9 9 9 9 9 10 9 9 10 10 11 11 12 13 13 14 15 16 17 18 19 19 20 21 22 24 25 26 29 32 35 36 36 36 36 36 37 37 36
6 6 6 6 6 7 7 7 8 8 9 9 10 10 10 10 10 10 10 10 10 9 9 8 8 8 7 7 8 7 8 8 8 8 9 9 10 11 11 12 13 14 15 16 16 18 19 21 23 24 26 29 32 34 35 35 36 36 37 38 38 38
7 7 6 6 7 7 7 8 9 9 10 10 11 11 10 10 11 10 10 10 9 8 7 7 6 6 6 6 6 6 6 7 7 7 8 8 9 9 10 10 11 11 12 13 14 15 18 19 21 21 23 26 29 31 33 35 36 37 38 39 39 39
8 8 8 8 8 8 9 9 10 10 11 12 12 12 12 11 10 9 8 7 6 6 5 5 4 4 5 5 5 5 5 6 7 7 8 8 9 9 10 10 11 11 12 13 13 15 17 18 18 18 19 23 26 29 32 34 36 37 38 39 40 40
9 8 8 8 9 10 10 10 11 12 12 12 12 11 10 9 8 7 6 5 4 4 3 3 3 3 4 5 5 6 6 7 7 8 8 8 9 10 11 11 12 12 13 14 14 15 17 18 17 17 19 22 25 27 30 32 34 36 38 39 41 42
9 9 9 9 10 11 11 11 12 12 11 10 9 8 7 6 5 5 4 3 2 2 2 2 3 4 5 6 7 7 8 8 9 9 10 10 10 11 11 12 13 13 14 14 14 15 17 18 19 19 20 21 23 25 27 29 31 34 36 38 40 42
11 11 11 11 12 12 12 11 11 10 9 9 8 7 6 5 4 4 3 2 2 1 1 2 3 4 5 6 7 8 8 9 10 10 11 12 12 13 13 13 14 14 15 15 16 16 16 18 20 21 21 22 23 24 26 27 29 32 34 35 37 41
13 13 13 14 14 13 13 12 11 10 9 8 8 7 6 6 5 4 4 3 3 2 2 2 3 3 4 5 6 7 8 9 9 10 11 11 13 13 14 14 15 15 16 16 17 18 18 18 20 21 22 22 23 24 25 27 29 31 32 34 37 40
14 14 14 15 14 14 13 12 11 11 10 9 8 7 7 6 6 5 4 4 3 3 2 2 3 3 4 5 6 7 8 8 9 10 10 11 11 12 12 13 14 15 16 16 17 18 19 19 20 21 22 23 23 24 25 27 29 31 33 35 37 40
15 15 15 15 14 14 13 12 12 11 10 9 8 8 7 7 6 5 5 4 3 3 2 2 3 3 4 5 6 7 7 8 9 10 11 12 12 12 13 13 13 14 14 15 16 17 18 19 19 20 22 23 23 23 24 27 30 33 34 36 38 40
16 16 16 15 14 14 14 13 13 12 11 11 10 9 8 7 6 6 5 4 3 3 2 2 2 3 4 5 6 7 8 9 9 10 11 12 12 13 13 14 14 14 14 14 15 15 16 17 18 19 20 21 22 23 24 27 30 33 34 36 38 40
Wind_Direction
264 260 259 259 258 259 259 257 256 254 253 251 250 250 249 249 249 248 249 249 248 249 249 249 249 249 248 247 246 245 244 245 246 246 247 247 248 249 250 249 245 239 235 238 244 247 245 243 242 243 245 246 247 247 247 251 248 231 214 208 206 206
263 258 258 258 257 257 257 257 257 256 255 253 251 252 251 251 251 250 249 249 249 249 248 248 247 247 247 246 245 244 244 246 247 247 248 248 249 249 250 250 246 239 234 236 242 244 241 241 242 243 248 251 247 243 246 251 240 218 207 206 206 205
276 271 268 266 264 262 257 255 255 255 255 255 253 251 251 253 254 254 252 250 249 248 248 247 246 245 245 244 244 244 244 246 246 247 247 248 249 249 250 250 248 240 234 235 240 241 241 243 241 241 249 254 249 244 245 244 226 210 205 206 206 204
286 282 279 277 275 273 267 258 253 250 250 251 250 249 249 252 255 255 254 252 249 247 247 246 244 243 242 242 242 242 244 245 246 246 246 246 247 249 250 251 249 241 235 236 240 242 243 243 241 241 248 255 253 245 242 237 220 208 205 206 206 205
283 277 276 275 274 275 275 271 262 255 252 252 252 252 252 254 256 257 257 255 251 248 246 244 243 243 242 242 241 242 243 245 245 245 244 245 247 248 249 250 247 241 238 237 239 241 243 243 241 240 241 253 258 247 243 239 222 209 207 206 206 207
303 275 269 266 264 263 264 269 269 265 262 260 260 260 258 257 258 259 260 260 258 254 251 249 247 246 246 245 244 244 244 243 243 243 244 246 248 248 249 249 246 243 240 237 237 239 241 244 241 235 234 252 260 248 242 241 225 212 209 209 207 209
52 29 342 296 278 268 264 264 266 267 267 267 266 265 264 263 262 263 264 265 265 262 260 256 252 250 249 248 248 248 247 246 246 247 248 249 249 249 250 249 246 244 239 237 238 238 243 247 239 231 234 252 255 246 240 238 226 214 209 209 210 211
50 41 31 14 352 325 306 295 291 286 277 273 269 265 264 264 265 266 267 265 263 262 260 258 253 250 249 249 250 251 251 250 249 248 249 250 250 250 252 252 249 244 239 239 240 239 246 248 236 227 236 248 251 249 241 232 223 215 210 209 210 212
53 46 41 33 28 17 352 327 313 304 289 279 270 261 258 258 261 265 266 266 263 260 260 258 255 252 250 250 251 251 251 250 248 247 246 246 247 250 253 253 252 248 241 238 237 241 250 246 232 226 233 241 247 250 241 227 218 214 210 209 210 212
55 47 43 36 29 24 17 4 345 328 307 293 282 275 271 266 267 271 272 274 273 269 268 265 263 261 258 257 256 255 254 252 249 248 247 247 249 251 252 251 250 250 247 239 231 237 248 240 230 230 233 237 243 244 236 224 215 212 210 209 210 212
21 21 22 21 17 12 9 6 358 348 334 319 303 292 286 279 277 276 274 275 276 274 271 266 264 263 261 261 260 259 257 254 250 247 245 245 246 247 248 248 245 245 249 244 233 231 236 234 232 233 232 234 241 238 229 220 214 212 210 209 211 213
294 316 330 341 351 356 354 352 349 344 336 328 319 306 293 282 276 273 272 273 273 271 270 266 262 260 259 260 260 259 258 255 252 248 243 241 239 240 242 242 242 243 245 245 238 231 231 236 235 231 228 234 243 239 227 218 213 212 211 211 213 214
276 289 301 309 316 322 326 328 330 331 329 324 316 307 299 290 281 273 270 272 272 272 272 270 266 263 261 261 260 259 257 254 251 248 244 240 235 235 236 237 241 244 242 244 242 232 231 239 236 229 230 237 243 239 228 218 214 213 213 213 215 218
277 285 292 297 301 304 308 312 313 316 321 321 312 300 293 292 289 280 271 269 270 270 270 268 267 266 264 262 261 258 254 251 249 246 244 242 237 234 234 234 238 241 241 247 245 233 230 236 231 228 234 240 243 237 226 219 217 216 215 215 216 219
278 284 288 293 297 299 301 303 303 306 311 315 311 298 288 284 284 281 276 271 269 268 267 266 265 265 264 263 261 257 251 246 245 243 241 241 238 235 234 234 235 237 240 248 248 239 234 232 227 226 232 239 244 236 223 219 220 219 218 218 217 219
280 283 286 293 296 295 296 296 298 301 302 304 305 300 289 279 276 276 274 273 271 270 268 266 263 263 262 259 256 253 247 240 237 238 236 234 233 233 235 235 235 238 243 249 250 244 237 229 226 229 235 242 244 234 221 219 220 221 222 221 221 222
278 279 284 292 291 285 287 291 295 295 290 288 291 292 289 281 275 275 274 273 274 273 270 267 264 261 258 253 249 245 241 234 228 226 225 225 229 232 235 236 235 240 246 249 248 242 232 225 226 234 241 244 240 228 219 219 220 221 222 222 223 224
269 271 279 288 285 279 280 286 290 287 277 273 275 280 283 282 279 278 278 277 276 273 270 265 262 259 257 252 245 238 234 229 225 224 224 227 232 234 234 236 237 239 242 245 245 236 227 225 231 238 240 239 233 224 219 219 221 222 222 222 223 223
264 270 277 280 278 275 276 279 282 278 268 263 264 268 273 276 278 279 279 278 276 272 268 263 260 259 258 256 249 240 232 227 224 225 228 233 238 239 238 237 238 238 239 243 242 231 225 230 242 245 242 238 232 225 222 222 223 224 224 223 223 223
264 269 272 272 271 272 272 273 273 267 259 256 256 258 262 268 272 275 277 277 274 270 266 261 260 260 259 260 255 244 235 228 226 226 229 234 237 240 243 242 240 240 239 239 234 227 231 245 253 252 249 243 235 228 225 225 226 226 225 224 223 223
262 264 267 267 268 269 267 266 264 258 255 252 250 250 253 258 264 268 270 271 268 266 265 262 260 259 258 258 255 247 237 229 226 227 230 233 233 234 239 242 240 239 237 233 230 233 244 254 256 255 254 246 236 229 227 227 228 228 227 226 225 224
256 257 260 262 263 264 261 257 254 252 253 251 248 248 249 251 256 257 258 259 258 258 259 257 254 253 252 252 250 246 239 230 225 225 228 232 231 230 234 239 239 237 235 234 237 245 252 255 254 255 253 245 235 230 228 228 230 230 230 229 228 227
253 254 256 258 259 259 254 250 248 248 249 250 251 254 254 252 252 250 250 252 252 252 252 250 249 247 245 244 244 242 239 234 229 228 228 229 230 230 232 237 238 238 239 241 246 251 255 256 257 257 254 245 237 231 230 231 233 234 234 234 233 232
251 251 254 256 256 253 247 242 242 244 248 251 253 256 258 255 251 248 247 248 249 248 246 243 244 245 244 245 247 246 244 241 236 235 235 234 234 235 236 238 240 242 244 247 251 255 257 259 260 257 251 243 236 233 232 233 235 237 237 236 236 235
243 244 247 247 245 242 237 235 237 240 244 247 248 250 252 251 248 245 244 245 246 245 243 242 243 246 247 247 248 247 245 243 240 239 239 239 240 241 243 244 245 247 249 251 254 256 258 257 254 249 242 238 234 233 234 235 236 237 237 237 238 239
237 234 233 233 231 232 234 235 238 240 241 243 244 246 247 246 245 243 242 242 242 240 240 240 239 241 241 240 240 240 239 238 238 239 240 242 243 245 247 248 250 251 253 255 256 256 256 254 249 242 237 235 233 233 234 236 236 237 237 238 239 240
231 225 225 227 224 227 233 233 236 238 238 239 238 237 237 235 234 233 229 227 226 222 221 223 223 225 228 228 230 233 234 236 239 241 244 247 249 252 254 256 257 258 259 260 261 260 260 258 253 246 240 237 235 234 235 237 238 239 240 240 241 240
221 219 222 219 211 218 222 219 222 223 223 225 222 218 220 216 210 207 202 197 196 195 196 200 203 209 214 220 225 229 232 236 240 243 249 253 256 261 265 265 267 267 266 266 266 266 265 264 260 255 248 243 240 238 238 239 240 241 242 242 242 241
208 210 210 204 198 201 202 200 203 204 204 207 205 201 200 193 187 183 179 177 177 178 182 189 195 201 208 214 221 227 231 237 243 248 255 260 264 268 271 272 274 275 275 275 274 272 270 268 265 260 254 250 246 244 244 244 244 243 243 243 243 243
197 200 199 198 194 192 190 191 192 191 193 192 187 182 178 174 172 171 169 171 173 174 180 189 195 202 210 217 223 228 231 237 245 249 252 257 261 265 268 271 274 276 278 278 275 273 270 267 266 264 261 258 255 252 250 249 248 248 247 246 245 245
192 195 196 195 194 190 188 187 185 182 180 175 170 168 166 166 167 166 167 170 172 175 184 195 203 215 227 236 244 248 249 252 256 258 259 261 265 266 267 268 269 270 271 270 268 268 268 268 269 271 269 265 262 258 256 255 254 254 253 251 249 248
192 195 193 191 190 187 182 179 176 172 168 166 165 163 162 163 163 164 167 172 174 183 200 216 239 257 266 275 280 282 281 281 282 283 282 281 279 279 278 277 277 275 272 270 269 269 270 271 270 267 264 263 262 261 260 260 259 258 257 255 252 250
192 191 188 185 182 178 173 171 169 165 161 159 157 155 154 156 156 159 164 169 179 206 244 270 288 299 303 303 305 307 306 303 301 301 299 297 294 292 290 289 289 286 283 281 278 274 272 271 269 266 263 263 264 264 264 264 263 263 261 259 257 254
188 184 181 179 176 173 171 169 166 162 158 154 151 150 151 151 153 158 161 162 181 222 265 280 292 303 307 308 312 315 315 315 316 313 311 310 308 305 303 301 299 296 293 290 287 282 277 273 271 268 267 266 265 266 267 267 267 266 266 265 262 259
183 180 178 175 174 174 172 169 168 166 164 163 162 162 162 162 166 172 174 178 193 209 232 259 275 288 294 299 305 307 307 310 312 312 312 312 311 310 310 309 308 306 302 299 296 293 287 281 276 272 270 267 266 266 267 268 268 269 268 266 264 262
180 178 175 175 176 175 173 173 173 172 171 172 172 172 173 174 176 180 183 187 196 208 228 252 270 281 289 293 296 297 297 298 299 300 302 303 303 304 306 308 308 308 307 305 303 300 296 291 286 282 278 275 271 268 269 271 271 270 267 265 264 264
177 175 174 175 175 175 174 173 171 170 171 172 173 175 178 178 177 180 184 187 195 210 226 251 270 280 289 294 294 296 297 297 298 300 301 302 304 305 307 309 309 309 309 307 305 303 299 296 292 288 285 282 278 274 272 271 270 269 268 267 267 267
175 174 173 171 170 171 172 170 168 168 168 166 165 167 168 168 168 171 174 177 183 193 209 239 265 276 284 289 291 293 295 296 298 301 302 304 307 308 309 311 312 311 310 309 306 304 301 297 294 291 288 286 284 279 274 271 270 270 271 271 271 272